This is the latest recevied weather packets stored in our database for station/object K5RWS. If no packets are shown the sender has not sent any weather packets the latest 10 day(s).
| Time | Temp. | Humidity | Pressure | Rain* | Wind** | Luminosity | Snow |
|---|---|---|---|---|---|---|---|
| 1777915337 | 20.56° C | 20% | 1017 hPa | 0 mm | - | 503 W/m² | - |
| 1777915034 | 20.56° C | 21% | 1017.2 hPa | 0 mm | - | 397 W/m² | - |
| 1777914731 | 20.56° C | 20% | 1017.4 hPa | 0 mm | - | 378 W/m² | - |
| 1777914428 | 20.56° C | 19% | 1016.8 hPa | 0 mm | - | 417 W/m² | - |
| 1777914125 | 20° C | 20% | 1017 hPa | 0 mm | - | 389 W/m² | - |
| 1777913821 | 20° C | 20% | 1017 hPa | 0 mm | - | 422 W/m² | - |
| 1777913517 | 20° C | 20% | 1017.3 hPa | 0 mm | - | 342 W/m² | - |
| 1777913214 | 19.44° C | 21% | 1017 hPa | 0 mm | - | 326 W/m² | - |
| 1777912910 | 20° C | 21% | 1016.9 hPa | 0 mm | - | 374 W/m² | - |
| 1777912607 | 19.44° C | 21% | 1017.2 hPa | 0 mm | - | 343 W/m² | - |
| 1777912303 | 19.44° C | 20% | 1017.3 hPa | 0 mm | - | 292 W/m² | - |
| 1777911999 | 19.44° C | 20% | 1017 hPa | 0 mm | - | 260 W/m² | - |
| 1777911695 | 20° C | 20% | 1017 hPa | 0 mm | - | 260 W/m² | - |
| 1777911392 | 19.44° C | 21% | 1017.3 hPa | 0 mm | - | 340 W/m² | - |
| 1777911090 | 19.44° C | 22% | 1017.3 hPa | 0 mm | - | 270 W/m² | - |
| 1777910787 | 18.89° C | 23% | 1017.3 hPa | 0 mm | - | 244 W/m² | - |
| 1777910483 | 18.89° C | 24% | 1017.3 hPa | 0 mm | - | 248 W/m² | - |
| 1777910180 | 18.89° C | 28% | 1017.3 hPa | 0 mm | - | 256 W/m² | - |
| 1777909877 | 18.33° C | 35% | 1017.5 hPa | 0 mm | - | 299 W/m² | - |
| 1777909574 | 17.78° C | 38% | 1017.5 hPa | 0 mm | - | 234 W/m² | - |
| 1777909271 | 17.78° C | 38% | 1017.4 hPa | 0 mm | - | 239 W/m² | - |
| 1777908970 | 17.22° C | 43% | 1017.4 hPa | 0 mm | - | 220 W/m² | - |
| 1777908668 | 16.67° C | 45% | 1017.4 hPa | 0 mm | - | 224 W/m² | - |
| 1777908364 | 16.67° C | 45% | 1017.3 hPa | 0 mm | - | 224 W/m² | - |
| 1777908060 | 16.67° C | 46% | 1017.4 hPa | 0 mm | - | 205 W/m² | - |
* Rain latest hour (hover to see other rain measurements)
** Current wind speed in m/s (hover to see current wind gust speed)